Time,TemperatureF,DewpointF,PressureIn,WindDirection,WindDirectionDegrees,WindSpeedMPH,WindSpeedGustMPH,Humidity,HourlyPrecipIn,Conditions,Clouds,dailyrainin,SoftwareType,DateUTC
2013-02-21 05:51:00,41.0,38.1,29.77,SSE,158,0.2,0.2,89,0.00,,,0.00,WUHU216HW,2013-02-21 13:51:00,
2013-02-21 05:56:00,41.0,38.1,29.77,SSE,158,0.2,0.2,89,0.00,,,0.00,WUHU216HW,2013-02-21 13:56:00,
2013-02-21 06:01:00,38.5,36.6,29.87,ESE,113,0.0,0.0,93,0.00,,,0.00,WUHU216HW,2013-02-21 14:01:00,
2013-02-21 06:06:00,38.5,36.6,29.87,ESE,113,0.0,0.0,93,0.00,,,0.00,WUHU216HW,2013-02-21 14:06:00,
2013-02-21 06:11:00,38.5,36.6,29.87,SSE,158,0.0,0.2,93,0.00,,,0.00,WUHU216HW,2013-02-21 14:11:00,
2013-02-21 06:16:00,38.7,36.8,29.87,SSE,158,0.0,0.2,93,0.00,,,0.00,WUHU216HW,2013-02-21 14:16:00,
2013-02-21 06:21:00,38.7,36.8,29.87,SW,225,0.2,0.2,93,0.00,,,0.00,WUHU216HW,2013-02-21 14:21:00,
2013-02-21 06:26:00,38.5,36.6,29.87,SW,225,0.0,0.4,93,0.00,,,0.00,WUHU216HW,2013-02-21 14:26:00,
2013-02-21 06:31:00,38.7,36.8,29.87,SSW,203,0.0,0.4,93,0.00,,,0.00,WUHU216HW,2013-02-21 14:31:00,
2013-02-21 06:36:00,38.9,37.0,29.87,WSW,248,0.0,0.7,93,0.00,,,0.00,WUHU216HW,2013-02-21 14:36:00,
2013-02-21 06:41:00,39.2,37.4,29.87,West,270,0.0,0.7,93,0.00,,,0.00,WUHU216HW,2013-02-21 14:41:00,
2013-02-21 06:46:00,39.2,37.4,29.88,SSE,158,0.2,1.3,93,0.00,,,0.00,WUHU216HW,2013-02-21 14:46:00,
2013-02-21 06:51:00,39.4,37.5,29.88,SSW,203,0.9,1.3,93,0.00,,,0.00,WUHU216HW,2013-02-21 14:51:00,
2013-02-21 06:56:00,39.4,37.5,29.88,SSE,158,0.0,1.1,93,0.00,,,0.00,WUHU216HW,2013-02-21 14:56:00,
2013-02-21 07:01:00,39.6,37.7,29.88,WSW,248,0.0,0.9,93,0.00,,,0.00,WUHU216HW,2013-02-21 15:01:00,
2013-02-21 07:06:00,39.6,37.7,29.88,South,180,0.4,1.3,93,0.00,,,0.00,WUHU216HW,2013-02-21 15:06:00,
2013-02-21 07:11:00,39.4,37.5,29.88,SE,135,0.4,1.3,93,0.00,,,0.00,WUHU216HW,2013-02-21 15:11:00,
2013-02-21 07:16:00,39.4,37.5,29.88,SW,225,0.0,1.1,93,0.00,,,0.00,WUHU216HW,2013-02-21 15:16:00,
2013-02-21 07:21:00,39.4,37.5,29.88,South,180,0.4,1.1,93,0.00,,,0.00,WUHU216HW,2013-02-21 15:21:00,
2013-02-21 07:26:00,39.6,37.7,29.88,SE,135,0.0,0.4,93,0.00,,,0.00,WUHU216HW,2013-02-21 15:26:00,
2013-02-21 07:31:00,39.6,37.7,29.88,ESE,113,0.4,0.4,93,0.00,,,0.00,WUHU216HW,2013-02-21 15:31:00,
2013-02-21 07:36:00,39.8,37.9,29.88,SSE,158,0.0,1.3,93,0.00,,,0.00,WUHU216HW,2013-02-21 15:36:00,
2013-02-21 07:41:00,39.8,37.9,29.89,WSW,248,0.2,1.3,93,0.00,,,0.00,WUHU216HW,2013-02-21 15:41:00,
2013-02-21 07:46:00,40.0,38.1,29.89,SW,225,0.0,1.1,93,0.00,,,0.00,WUHU216HW,2013-02-21 15:46:00,
2013-02-21 07:51:00,40.1,38.3,29.89,SW,225,0.0,0.4,93,0.00,,,0.00,WUHU216HW,2013-02-21 15:51:00,
2013-02-21 07:56:00,40.1,38.3,29.89,SSW,203,0.0,2.0,93,0.00,,,0.00,WUHU216HW,2013-02-21 15:56:00,
2013-02-21 08:01:00,40.1,38.3,29.89,WNW,293,1.1,2.0,93,0.00,,,0.00,WUHU216HW,2013-02-21 16:01:00,
2013-02-21 08:06:00,40.1,38.5,29.89,WSW,248,0.7,1.3,94,0.00,,,0.00,WUHU216HW,2013-02-21 16:06:00,
2013-02-21 08:11:00,40.5,38.9,29.89,SW,225,0.2,1.3,94,0.00,,,0.00,WUHU216HW,2013-02-21 16:11:00,
2013-02-21 08:16:00,40.7,39.1,29.89,SW,225,0.2,0.9,94,0.00,,,0.00,WUHU216HW,2013-02-21 16:16:00,
2013-02-21 08:21:00,40.7,38.8,29.89,WSW,248,0.0,0.4,93,0.00,,,0.00,WUHU216HW,2013-02-21 16:21:00,
2013-02-21 08:26:00,40.7,38.8,29.90,SSW,203,0.9,1.3,93,0.00,,,0.00,WUHU216HW,2013-02-21 16:26:00,
2013-02-21 08:31:00,40.9,39.0,29.90,SSE,158,0.7,1.3,93,0.00,,,0.00,WUHU216HW,2013-02-21 16:31:00,
2013-02-21 08:36:00,41.0,39.2,29.90,South,180,0.0,1.3,93,0.00,,,0.00,WUHU216HW,2013-02-21 16:36:00,
2013-02-21 08:41:00,41.0,39.2,29.90,South,180,1.1,1.3,93,0.00,,,0.00,WUHU216HW,2013-02-21 16:41:00,
2013-02-21 08:46:00,41.2,39.3,29.89,South,180,0.2,1.3,93,0.00,,,0.00,WUHU216HW,2013-02-21 16:46:00,
2013-02-21 08:51:00,41.4,39.5,29.90,SSW,203,0.0,1.6,93,0.00,,,0.00,WUHU216HW,2013-02-21 16:51:00,
2013-02-21 08:56:00,41.6,39.7,29.90,SSE,158,0.0,1.6,93,0.00,,,0.00,WUHU216HW,2013-02-21 16:56:00,
2013-02-21 09:01:00,41.9,40.1,29.90,SE,135,1.1,1.8,93,0.00,,,0.00,WUHU216HW,2013-02-21 17:01:00,
2013-02-21 09:06:00,42.1,40.2,29.90,South,180,0.0,1.8,93,0.00,,,0.00,WUHU216HW,2013-02-21 17:06:00,
2013-02-21 09:11:00,42.5,40.6,29.90,SSW,203,0.0,1.1,93,0.00,,,0.00,WUHU216HW,2013-02-21 17:11:00,
2013-02-21 09:16:00,42.8,41.0,29.90,ESE,113,0.7,2.0,93,0.00,,,0.00,WUHU216HW,2013-02-21 17:16:00,
2013-02-21 09:21:00,43.0,41.1,29.90,SSW,203,0.0,2.5,93,0.00,,,0.00,WUHU216HW,2013-02-21 17:21:00,
2013-02-21 09:26:00,43.2,41.3,29.90,SSW,203,1.1,2.5,93,0.00,,,0.00,WUHU216HW,2013-02-21 17:26:00,
2013-02-21 09:31:00,43.2,41.3,29.90,ESE,113,0.7,1.3,93,0.00,,,0.00,WUHU216HW,2013-02-21 17:31:00,
2013-02-21 09:36:00,43.6,41.7,29.90,West,270,0.0,1.1,93,0.00,,,0.00,WUHU216HW,2013-02-21 17:36:00,
2013-02-21 09:41:00,43.7,41.9,29.90,SW,225,0.0,1.1,93,0.00,,,0.00,WUHU216HW,2013-02-21 17:41:00,
2013-02-21 09:46:00,43.9,42.0,29.90,SSE,158,0.7,1.6,93,0.00,,,0.00,WUHU216HW,2013-02-21 17:46:00,
2013-02-21 09:51:00,44.3,42.4,29.90,SSE,158,0.7,1.6,93,0.00,,,0.00,WUHU216HW,2013-02-21 17:51:00,
2013-02-21 09:56:00,44.6,42.5,29.90,SW,225,0.0,1.3,92,0.00,,,0.00,WUHU216HW,2013-02-21 17:56:00,
2013-02-21 10:01:00,44.6,42.5,29.90,SE,135,1.1,2.7,92,0.00,,,0.00,WUHU216HW,2013-02-21 18:01:00,
2013-02-21 10:06:00,44.8,42.7,29.90,SW,225,0.4,2.7,92,0.00,,,0.00,WUHU216HW,2013-02-21 18:06:00,
2013-02-21 10:11:00,45.2,43.0,29.90,SW,225,1.1,2.2,92,0.00,,,0.00,WUHU216HW,2013-02-21 18:11:00,
2013-02-21 10:16:00,45.4,42.9,29.90,SW,225,3.4,3.6,91,0.00,,,0.00,WUHU216HW,2013-02-21 18:16:00,
2013-02-21 10:21:00,45.4,42.9,29.90,SSE,158,0.4,3.6,91,0.00,,,0.00,WUHU216HW,2013-02-21 18:21:00,
2013-02-21 10:26:00,45.4,43.2,29.90,South,180,1.1,3.4,92,0.00,,,0.00,WUHU216HW,2013-02-21 18:26:00,
2013-02-21 10:31:00,45.4,42.9,29.90,WSW,248,2.9,2.9,91,0.00,,,0.00,WUHU216HW,2013-02-21 18:31:00,
2013-02-21 10:36:00,45.7,43.3,29.89,SSW,203,3.6,3.6,91,0.00,,,0.00,WUHU216HW,2013-02-21 18:36:00,
2013-02-21 10:41:00,46.1,43.7,29.89,SSW,203,0.4,3.6,91,0.00,,,0.00,WUHU216HW,2013-02-21 18:41:00,
2013-02-21 10:46:00,46.4,44.0,29.89,North,0,0.4,3.6,91,0.00,,,0.00,WUHU216HW,2013-02-21 18:46:00,
2013-02-21 10:51:00,46.4,44.0,29.89,NW,315,1.3,1.3,91,0.00,,,0.00,WUHU216HW,2013-02-21 18:51:00,
2013-02-21 10:56:00,46.6,43.9,29.89,ESE,113,0.4,1.3,90,0.00,,,0.00,WUHU216HW,2013-02-21 18:56:00,
2013-02-21 11:01:00,46.8,44.1,29.89,North,0,0.4,2.9,90,0.00,,,0.00,WUHU216HW,2013-02-21 19:01:00,
2013-02-21 11:06:00,47.2,44.2,29.89,WSW,248,0.0,2.9,89,0.00,,,0.00,WUHU216HW,2013-02-21 19:06:00,
2013-02-21 11:11:00,47.2,44.2,29.89,ESE,113,0.0,1.6,89,0.00,,,0.00,WUHU216HW,2013-02-21 19:11:00,
2013-02-21 11:16:00,47.7,44.4,29.90,WSW,248,2.5,2.5,88,0.00,,,0.00,WUHU216HW,2013-02-21 19:16:00,
2013-02-21 11:21:00,47.7,44.4,29.90,SSW,203,4.0,4.0,88,0.00,,,0.00,WUHU216HW,2013-02-21 19:21:00,
2013-02-21 11:26:00,47.7,44.0,29.90,South,180,0.9,4.0,87,0.00,,,0.00,WUHU216HW,2013-02-21 19:26:00,
2013-02-21 11:31:00,47.7,43.8,29.90,South,180,1.1,4.0,86,0.00,,,0.00,WUHU216HW,2013-02-21 19:31:00,
2013-02-21 11:36:00,47.7,43.4,29.90,SSE,158,0.2,3.6,85,0.00,,,0.00,WUHU216HW,2013-02-21 19:36:00,
2013-02-21 11:41:00,47.5,43.2,29.90,WSW,248,1.6,2.0,85,0.00,,,0.00,WUHU216HW,2013-02-21 19:41:00,
2013-02-21 11:46:00,47.5,43.2,29.90,North,0,0.0,1.6,85,0.00,,,0.00,WUHU216HW,2013-02-21 19:46:00,
2013-02-21 11:51:00,47.9,43.6,29.89,South,180,0.4,2.0,85,0.00,,,0.00,WUHU216HW,2013-02-21 19:51:00,
2013-02-21 11:56:00,48.1,43.7,29.89,South,180,2.0,3.6,85,0.00,,,0.00,WUHU216HW,2013-02-21 19:56:00,
2013-02-21 12:01:00,47.9,43.6,29.89,SW,225,1.1,3.6,85,0.00,,,0.00,WUHU216HW,2013-02-21 20:01:00,
2013-02-21 12:06:00,47.9,43.9,29.89,West,270,1.6,2.7,86,0.00,,,0.00,WUHU216HW,2013-02-21 20:06:00,
2013-02-21 12:11:00,47.7,43.8,29.89,NW,315,0.2,2.7,86,0.00,,,0.00,WUHU216HW,2013-02-21 20:11:00,
2013-02-21 12:16:00,47.5,43.6,29.89,WNW,293,0.0,1.8,86,0.00,,,0.00,WUHU216HW,2013-02-21 20:16:00,
2013-02-21 12:21:00,47.5,43.8,29.89,SSW,203,0.0,0.9,87,0.01,,,0.01,WUHU216HW,2013-02-21 20:21:00,
2013-02-21 12:26:00,47.3,43.7,29.89,NW,315,0.4,0.9,87,0.01,,,0.01,WUHU216HW,2013-02-21 20:26:00,
2013-02-21 12:31:00,47.2,43.6,29.89,WNW,293,0.0,0.4,87,0.02,,,0.02,WUHU216HW,2013-02-21 20:31:00,
2013-02-21 12:36:00,47.0,43.4,29.89,West,270,0.0,0.4,87,0.02,,,0.02,WUHU216HW,2013-02-21 20:36:00,
2013-02-21 12:41:00,46.8,43.5,29.89,NW,315,0.0,0.4,88,0.03,,,0.03,WUHU216HW,2013-02-21 20:41:00,
2013-02-21 12:46:00,47.0,43.7,29.89,WNW,293,0.0,0.7,88,0.04,,,0.04,WUHU216HW,2013-02-21 20:46:00,
2013-02-21 12:48:00,47.0,43.7,29.89,WNW,293,0.0,0.7,88,0.04,,,0.04,WUHU216HW,2013-02-21 20:48:00,
2013-02-21 15:24:00,47.0,43.7,29.89,WNW,293,0.0,0.0,88,0.04,,,0.04,WUHU216HW,2013-02-21 23:24:00,
2013-02-21 15:25:00,47.0,43.7,29.89,WNW,293,0.0,0.0,88,0.04,,,0.04,WUHU216HW,2013-02-21 23:25:00,
2013-02-21 15:30:00,47.0,43.7,29.89,WNW,293,0.0,0.0,88,0.04,,,0.04,WUHU216HW,2013-02-21 23:30:00,
2013-02-21 16:00:00,47.9,43.6,29.85,SE,135,2.7,2.7,85,0.00,,,0.04,WUHU216HW,2013-02-22 00:00:00,
2013-02-21 16:05:00,47.9,43.6,29.85,SW,225,0.9,2.7,85,0.00,,,0.05,WUHU216HW,2013-02-22 00:05:00,
2013-02-21 16:10:00,47.9,43.9,29.85,SSE,158,1.3,2.7,86,0.00,,,0.05,WUHU216HW,2013-02-22 00:10:00,
2013-02-21 16:15:00,47.9,43.6,29.85,SE,135,1.1,1.8,85,0.00,,,0.05,WUHU216HW,2013-02-22 00:15:00,
2013-02-21 16:20:00,47.7,43.4,29.85,WSW,248,2.5,2.5,85,0.00,,,0.05,WUHU216HW,2013-02-22 00:20:00,
2013-02-21 16:25:00,47.7,43.4,29.85,SE,135,0.9,2.5,85,0.00,,,0.05,WUHU216HW,2013-02-22 00:25:00,
2013-02-21 16:30:00,47.3,43.0,29.85,NNE,23,0.7,2.5,85,0.00,,,0.05,WUHU216HW,2013-02-22 00:30:00,
2013-02-21 16:35:00,47.3,43.0,29.85,SW,225,0.4,2.5,85,0.00,,,0.05,WUHU216HW,2013-02-22 00:35:00,
2013-02-21 16:40:00,47.2,42.9,29.85,West,270,1.6,4.0,85,0.00,,,0.05,WUHU216HW,2013-02-22 00:40:00,
2013-02-21 16:45:00,47.0,42.8,29.85,SE,135,1.6,4.0,85,0.00,,,0.05,WUHU216HW,2013-02-22 00:45:00,
2013-02-21 16:50:00,46.8,42.6,29.85,SE,135,0.4,3.8,85,0.00,,,0.05,WUHU216HW,2013-02-22 00:50:00,
2013-02-21 16:55:00,46.8,42.8,29.85,West,270,0.4,6.7,86,0.00,,,0.05,WUHU216HW,2013-02-22 00:55:00,
2013-02-21 17:00:00,47.0,43.0,29.85,WSW,248,1.1,6.7,86,0.00,,,0.05,WUHU216HW,2013-02-22 01:00:00,
2013-02-21 17:05:00,47.0,43.0,29.86,ESE,113,0.4,3.6,86,0.00,,,0.05,WUHU216HW,2013-02-22 01:05:00,
2013-02-21 17:10:00,46.8,42.8,29.85,NW,315,0.0,3.6,86,0.00,,,0.05,WUHU216HW,2013-02-22 01:10:00,
2013-02-21 17:15:00,46.8,42.8,29.85,SSW,203,0.4,2.9,86,0.00,,,0.05,WUHU216HW,2013-02-22 01:15:00,
2013-02-21 17:20:00,46.6,42.7,29.85,SSE,158,1.1,5.4,86,0.00,,,0.05,WUHU216HW,2013-02-22 01:20:00,
2013-02-21 17:25:00,46.4,42.5,29.85,SE,135,0.4,5.4,86,0.00,,,0.05,WUHU216HW,2013-02-22 01:25:00,
2013-02-21 17:30:00,46.3,42.7,29.86,South,180,0.4,4.5,87,0.00,,,0.05,WUHU216HW,2013-02-22 01:30:00,
2013-02-21 17:35:00,46.3,42.7,29.86,South,180,0.2,4.5,87,0.00,,,0.05,WUHU216HW,2013-02-22 01:35:00,
2013-02-21 17:40:00,46.1,42.5,29.85,SW,225,0.4,2.0,87,0.00,,,0.05,WUHU216HW,2013-02-22 01:40:00,
2013-02-21 17:45:00,46.1,42.5,29.86,South,180,1.3,3.4,87,0.00,,,0.05,WUHU216HW,2013-02-22 01:45:00,
2013-02-21 17:50:00,45.9,42.3,29.85,SE,135,0.4,3.4,87,0.00,,,0.05,WUHU216HW,2013-02-22 01:50:00,
2013-02-21 17:55:00,45.7,42.1,29.85,SE,135,0.4,2.9,87,0.00,,,0.05,WUHU216HW,2013-02-22 01:55:00,
2013-02-21 18:00:00,45.7,42.1,29.86,South,180,0.9,2.9,87,0.00,,,0.05,WUHU216HW,2013-02-22 02:00:00,
2013-02-21 18:05:00,45.7,42.1,29.86,SW,225,1.3,2.7,87,0.00,,,0.05,WUHU216HW,2013-02-22 02:05:00,
2013-02-21 18:10:00,45.5,41.6,29.86,NNE,23,0.7,2.7,86,0.00,,,0.05,WUHU216HW,2013-02-22 02:10:00,
2013-02-21 18:15:00,45.5,41.6,29.86,South,180,2.5,3.6,86,0.00,,,0.05,WUHU216HW,2013-02-22 02:15:00,
2013-02-21 18:20:00,45.5,41.6,29.86,North,0,0.0,3.6,86,0.00,,,0.05,WUHU216HW,2013-02-22 02:20:00,
2013-02-21 18:25:00,45.4,41.4,29.86,SSE,158,1.6,2.5,86,0.00,,,0.05,WUHU216HW,2013-02-22 02:25:00,
2013-02-21 18:30:00,45.4,41.4,29.86,West,270,0.9,2.5,86,0.00,,,0.05,WUHU216HW,2013-02-22 02:30:00,
2013-02-21 18:35:00,45.2,41.6,29.86,NNW,338,0.4,2.5,87,0.00,,,0.05,WUHU216HW,2013-02-22 02:35:00,
2013-02-21 18:40:00,45.2,41.6,29.86,SW,225,1.1,4.9,87,0.00,,,0.05,WUHU216HW,2013-02-22 02:40:00,
2013-02-21 18:45:00,45.2,41.6,29.86,SSE,158,1.8,4.9,87,0.00,,,0.05,WUHU216HW,2013-02-22 02:45:00,
2013-02-21 18:50:00,45.2,41.6,29.86,South,180,0.9,2.0,87,0.00,,,0.05,WUHU216HW,2013-02-22 02:50:00,
2013-02-21 18:55:00,45.2,41.6,29.87,WSW,248,1.1,2.0,87,0.00,,,0.05,WUHU216HW,2013-02-22 02:55:00,
2013-02-21 19:00:00,45.2,41.6,29.87,SW,225,3.8,3.8,87,0.00,,,0.05,WUHU216HW,2013-02-22 03:00:00,
2013-02-21 19:05:00,45.2,41.6,29.87,South,180,0.7,3.8,87,0.00,,,0.05,WUHU216HW,2013-02-22 03:05:00,
2013-02-21 19:10:00,45.2,41.6,29.87,WNW,293,0.9,3.8,87,0.00,,,0.05,WUHU216HW,2013-02-22 03:10:00,
2013-02-21 19:15:00,45.2,41.6,29.87,NW,315,1.1,3.1,87,0.00,,,0.05,WUHU216HW,2013-02-22 03:15:00,
2013-02-21 19:20:00,45.2,41.9,29.87,SW,225,1.1,3.1,88,0.00,,,0.05,WUHU216HW,2013-02-22 03:20:00,
2013-02-21 19:25:00,45.2,41.9,29.88,SSE,158,1.8,4.5,88,0.00,,,0.05,WUHU216HW,2013-02-22 03:25:00,
2013-02-21 19:30:00,45.0,41.7,29.87,South,180,0.7,4.5,88,0.00,,,0.05,WUHU216HW,2013-02-22 03:30:00,
2013-02-21 19:35:00,45.0,41.7,29.87,SE,135,1.8,3.4,88,0.00,,,0.05,WUHU216HW,2013-02-22 03:35:00,
2013-02-21 19:40:00,45.0,41.7,29.87,SW,225,0.9,2.5,88,0.00,,,0.05,WUHU216HW,2013-02-22 03:40:00,
2013-02-21 19:45:00,45.0,41.7,29.87,SE,135,1.3,2.5,88,0.00,,,0.05,WUHU216HW,2013-02-22 03:45:00,
2013-02-21 19:50:00,45.0,41.7,29.87,SSE,158,1.3,2.5,88,0.00,,,0.05,WUHU216HW,2013-02-22 03:50:00,
2013-02-21 19:55:00,45.0,42.0,29.87,SSW,203,0.2,2.7,89,0.00,,,0.05,WUHU216HW,2013-02-22 03:55:00,
2013-02-21 20:00:00,45.0,42.0,29.87,SSW,203,2.5,2.7,89,0.00,,,0.05,WUHU216HW,2013-02-22 04:00:00,
2013-02-21 20:05:00,45.0,41.7,29.87,SSE,158,0.4,2.9,88,0.00,,,0.05,WUHU216HW,2013-02-22 04:05:00,
2013-02-21 20:10:00,45.0,42.0,29.87,WSW,248,0.4,5.1,89,0.00,,,0.05,WUHU216HW,2013-02-22 04:10:00,
2013-02-21 20:15:00,45.0,42.0,29.86,ENE,68,0.0,5.1,89,0.00,,,0.05,WUHU216HW,2013-02-22 04:15:00,
2013-02-21 20:20:00,45.0,42.0,29.86,SSE,158,2.0,2.9,89,0.00,,,0.05,WUHU216HW,2013-02-22 04:20:00,
2013-02-21 20:25:00,45.0,42.0,29.86,East,90,0.2,2.9,89,0.00,,,0.05,WUHU216HW,2013-02-22 04:25:00,
2013-02-21 20:30:00,45.0,42.0,29.86,East,90,0.4,0.9,89,0.00,,,0.05,WUHU216HW,2013-02-22 04:30:00,
2013-02-21 20:35:00,45.0,42.0,29.86,WSW,248,1.1,2.0,89,0.00,,,0.05,WUHU216HW,2013-02-22 04:35:00,
2013-02-21 20:40:00,45.0,42.0,29.86,SE,135,1.1,2.0,89,0.00,,,0.05,WUHU216HW,2013-02-22 04:40:00,
2013-02-21 20:45:00,45.0,42.0,29.86,East,90,2.5,4.3,89,0.00,,,0.05,WUHU216HW,2013-02-22 04:45:00,
2013-02-21 20:50:00,45.0,42.0,29.86,SE,135,0.0,4.3,89,0.00,,,0.05,WUHU216HW,2013-02-22 04:50:00,
2013-02-21 20:55:00,45.0,42.0,29.86,NW,315,1.1,3.4,89,0.00,,,0.05,WUHU216HW,2013-02-22 04:55:00,
2013-02-21 21:00:00,45.0,42.0,29.86,East,90,1.1,3.6,89,0.00,,,0.05,WUHU216HW,2013-02-22 05:00:00,
2013-02-21 21:05:00,45.0,42.0,29.87,SSE,158,1.6,3.6,89,0.00,,,0.05,WUHU216HW,2013-02-22 05:05:00,
2013-02-21 21:10:00,45.0,42.0,29.87,WSW,248,0.4,2.0,89,0.00,,,0.05,WUHU216HW,2013-02-22 05:10:00,
2013-02-21 21:15:00,45.0,42.0,29.86,SW,225,1.8,3.4,89,0.00,,,0.05,WUHU216HW,2013-02-22 05:15:00,
2013-02-21 21:20:00,45.0,42.0,29.86,South,180,0.4,3.4,89,0.00,,,0.05,WUHU216HW,2013-02-22 05:20:00,
2013-02-21 21:25:00,45.0,42.0,29.87,WSW,248,0.7,3.4,89,0.00,,,0.05,WUHU216HW,2013-02-22 05:25:00,
2013-02-21 21:30:00,45.0,42.0,29.87,ESE,113,0.7,3.4,89,0.00,,,0.05,WUHU216HW,2013-02-22 05:30:00,
2013-02-21 21:35:00,45.0,42.0,29.87,SW,225,3.1,3.1,89,0.00,,,0.05,WUHU216HW,2013-02-22 05:35:00,
2013-02-21 21:40:00,45.0,42.0,29.87,SE,135,0.9,3.1,89,0.00,,,0.05,WUHU216HW,2013-02-22 05:40:00,
2013-02-21 21:45:00,44.8,41.9,29.87,SW,225,3.6,3.6,89,0.00,,,0.05,WUHU216HW,2013-02-22 05:45:00,
2013-02-21 21:50:00,44.8,41.9,29.87,South,180,1.1,3.6,89,0.00,,,0.05,WUHU216HW,2013-02-22 05:50:00,
2013-02-21 21:55:00,45.0,42.0,29.87,WSW,248,1.1,3.6,89,0.00,,,0.05,WUHU216HW,2013-02-22 05:55:00,
2013-02-21 22:00:00,44.8,41.9,29.87,SSE,158,1.8,3.1,89,0.00,,,0.05,WUHU216HW,2013-02-22 06:00:00,
2013-02-21 22:05:00,44.8,41.9,29.88,WNW,293,0.7,3.1,89,0.00,,,0.05,WUHU216HW,2013-02-22 06:05:00,
2013-02-21 22:10:00,44.8,41.9,29.88,South,180,2.0,2.7,89,0.00,,,0.05,WUHU216HW,2013-02-22 06:10:00,
2013-02-21 22:15:00,44.6,41.7,29.88,SE,135,0.0,4.0,89,0.00,,,0.05,WUHU216HW,2013-02-22 06:15:00,
2013-02-21 22:16:00,44.6,41.7,29.88,NNE,23,0.4,4.0,89,0.00,,,0.05,WUHU216HW,2013-02-22 06:16:00,